VE6CWS-7 Weather Reports


time (UTC)temp
F
wind
direction
speed
knots
gust
knots
rain 1hr
in
rain 24hr
in
rain mn
in
humidity
%
barometer
mb
20260906224541 64 93 0.0 0.0 0.00 0.23 0.23 73 1014.9
20260906223039 63 49 0.0 0.0 0.00 0.23 0.23 76 1014.8
20260906221638 64 75 0.0 3.5 0.00 0.23 0.23 73 1014.8
20260906220136 63 59 0.0 0.9 0.00 0.23 0.23 75 1014.8
20260906214537 63 23 0.0 0.0 0.00 0.23 0.23 77 1014.9
20260906213035 62 64 0.0 0.9 0.00 0.23 0.23 81 1015.3
20260906211536 62 45 2.6 7.8 0.00 0.23 0.23 82 1015.5
20260906210132 61 74 4.3 7.8 0.00 0.23 0.23 85 1015.6
20260906204615 60 69 0.0 5.2 0.00 0.23 0.23 89 1015.7
20260906203051 59 32 0.0 8.7 0.00 0.23 0.23 90 1015.8
20260906201603 60 74 0.9 10.4 0.00 0.23 0.23 92 1015.8
20260906200149 59 68 0.9 8.7 0.00 0.23 0.23 94 1015.7
20260906194550 58 50 0.0 11.3 0.00 0.23 0.23 95 1015.6
20260906193048 57 28 1.7 12.2 0.00 0.23 0.23 95 1015.3
20260906191544 56 45 2.6 13.0 0.01 0.23 0.23 95 1015.6
20260906190141 55 49 4.3 12.2 0.01 0.23 0.23 95 1015.5
20260906184548 55 67 0.0 11.3 0.01 0.23 0.23 95 1016.0
20260906183041 55 66 0.9 8.7 0.03 0.23 0.23 95 1016.5
20260906181539 55 82 0.9 7.8 0.05 0.22 0.22 95 1016.9
20260906180138 55 75 0.9 9.6 0.12 0.22 0.22 95 1017.0
20260906174539 55 84 0.0 4.3 0.17 0.22 0.22 95 1017.2
20260906173035 55 82 0.0 7.0 0.18 0.20 0.20 95 1017.7
20260906171536 54 76 0.0 1.7 0.16 0.17 0.17 95 1017.8
20260906170134 54 76 0.0 5.2 0.10 0.10 0.10 95 1017.7
20260906164536 54 74 0.0 3.5 0.05 0.05 0.05 95 1018.0
20260906163034 55 92 0.0 0.0 0.02 0.02 0.02 95 1018.5
20260906161541 54 88 0.0 0.0 0.01 0.01 0.01 95 1018.5
20260906160133 54 96 0.0 2.6 0.00 0.00 0.00 95 1018.6
20260906154600 54 101 0.0 7.0 0.00 0.00 0.00 95 1018.6
20260906153054 54 84 0.0 2.6 0.00 0.00 0.00 95 1018.2
20260906151550 54 85 0.0 7.8 0.00 0.00 0.00 95 1018.1
20260906150149 54 113 1.7 10.4 0.00 0.00 0.00 95 1017.9
20260906144549 54 71 0.9 9.6 0.00 0.00 0.00 95 1017.9
20260906143048 54 70 0.0 5.2 0.00 0.00 0.00 95 1017.7
20260906141556 54 56 0.0 5.2 0.00 0.00 0.00 95 1017.5
20260906140144 54 55 0.0 0.0 0.00 0.00 0.00 95 1017.5
20260906134546 53 42 0.9 6.1 0.00 0.00 0.00 95 1017.8
20260906133145 54 42 0.0 0.0 0.00 0.00 0.00 94 1018.0
20260906131544 54 32 0.0 0.0 0.00 0.00 0.00 94 1018.1
20260906130144 54 32 0.0 0.0 0.00 0.00 0.00 94 1018.3
20260906124540 53 32 0.0 0.0 0.00 0.00 0.00 94 1018.4
20260906123044 53 32 0.0 0.0 0.00 0.00 0.00 94 1018.1
20260906121538 53 19 0.0 0.9 0.00 0.00 0.00 94 1017.6
20260906120151 53 5 0.0 3.5 0.00 0.00 0.00 94 1017.5
20260906114547 53 11 0.0 0.0 0.00 0.00 0.00 94 1017.9
20260906113038 53 309 0.0 0.9 0.00 0.00 0.00 94 1018.5
20260906111546 53 309 0.0 0.0 0.00 0.00 0.00 94 1019.0
20260906110137 53 309 0.0 0.0 0.00 0.00 0.00 94 1019.0
20260906104542 53 317 0.0 0.0 0.00 0.00 0.00 94 1018.6
20260906103045 53 295 0.0 1.7 0.00 0.00 0.00 94 1018.8
20260906101536 53 226 1.7 9.6 0.00 0.00 0.00 94 1019.2
20260906100133 53 90 0.9 8.7 0.00 0.00 0.00 94 1018.6
20260906094549 53 79 6.1 11.3 0.00 0.00 0.00 94 1018.3
20260906093040 53 59 0.0 3.5 0.00 0.00 0.00 94 1018.9
20260906091537 52 323 0.0 0.0 0.00 0.00 0.00 93 1019.6
20260906090131 52 271 0.0 2.6 0.00 0.00 0.00 93 1020.1
20260906084556 53 293 0.0 1.7 0.00 0.00 0.00 93 1020.4
20260906083051 53 308 0.0 0.0 0.00 0.00 0.00 93 1020.3
20260906081550 53 316 0.0 0.0 0.00 0.00 0.00 92 1020.5
20260906080147 53 316 0.0 0.0 0.00 0.00 0.00 92 1020.5
20260906074551 53 316 0.0 0.0 0.00 0.00 0.00 93 1020.5
20260906073051 53 316 0.0 0.9 0.00 0.00 0.00 93 1020.5
20260906071546 53 308 0.0 0.9 0.00 0.00 0.00 93 1020.5
20260906070145 53 339 0.0 3.5 0.00 0.00 0.00 92 1020.5
20260906064547 52 326 0.0 0.0 0.00 0.00 0.00 92 1020.4
20260906063047 52 309 0.0 0.0 0.00 0.00 0.00 92 1020.4
20260906061547 52 331 0.0 0.0 0.00 0.00 0.00 92 1020.2
20260906060141 53 321 0.0 1.7 0.00 0.00 0.00 92 1020.2
20260906054559 53 333 0.0 4.3 0.00 0.00 0.00 92 1020.1
20260906053041 53 355 0.0 2.6 0.00 0.00 0.00 92 1020.0
20260906051541 53 17 0.0 1.7 0.00 0.00 0.00 92 1020.0
20260906050141 53 306 0.0 4.3 0.00 0.00 0.00 92 1020.0
20260906044540 52 10 0.0 1.7 0.00 0.00 0.00 91 1019.9
20260906043039 53 10 0.0 3.5 0.00 0.00 0.00 91 1019.9
20260906041538 53 24 0.0 0.9 0.00 0.00 0.00 91 1019.9
20260906040137 53 9 0.0 0.0 0.00 0.00 0.00 91 1019.4
20260906034547 53 340 0.0 0.0 0.00 0.00 0.00 89 1019.4
20260906033038 53 330 0.0 0.0 0.00 0.00 0.00 89 1019.6
20260906031602 54 333 0.0 0.0 0.00 0.00 0.00 88 1019.5
20260906030135 55 5 0.0 0.0 0.00 0.00 0.00 88 1019.4
20260906024553 56 22 0.0 7.8 0.00 0.00 0.00 87 1019.1
20260906023034 56 23 0.0 1.7 0.00 0.00 0.00 85 1018.8
20260906021531 57 30 0.0 9.6 0.00 0.00 0.00 83 1018.8
20260906020130 58 26 0.0 5.2 0.00 0.00 0.00 81 1018.8
20260906014553 60 343 2.6 7.0 0.00 0.00 0.00 78 1018.5
20260906013050 61 355 0.0 4.3 0.00 0.00 0.00 76 1018.4
20260906011550 62 325 0.9 5.2 0.00 0.00 0.00 75 1018.5
20260906010147 62 323 0.0 0.9 0.00 0.00 0.00 74 1018.5
20260906004546 63 11 0.0 0.9 0.00 0.00 0.00 74 1018.5
20260906003046 62 314 0.0 4.3 0.00 0.00 0.00 76 1018.5
20260906001546 62 323 0.0 2.6 0.00 0.00 0.00 76 1018.5
20260906000147 62 355 0.0 2.6 0.00 0.00 0.00 75 1018.4
20260905234550 62 5 0.0 4.3 0.00 0.00 0.00 75 1018.5
20260905233047 62 23 0.0 7.0 0.00 0.00 0.00 75 1018.3
20260905231546 62 35 0.0 2.6 0.00 0.00 0.00 74 1018.2
20260905230142 62 35 0.0 0.0 0.00 0.00 0.00 74 1018.1